Date,TemperatureHighF,TemperatureAvgF,TemperatureLowF,DewpointHighF,DewpointAvgF,DewpointLowF,HumidityHigh,HumidityAvg,HumidityLow,PressureMaxIn,PressureMinIn,WindSpeedMaxMPH,WindSpeedAvgMPH,GustSpeedMaxMPH,PrecipitationSumIn
2013-3-1,32.0,31.3,31.0,29.0,28.3,28.0,90,90,90,30.13,30.12,0,0,0,0.00
2013-3-2,28.0,26.0,23.0,19.0,18.1,16.0,75,71,69,30.28,30.26,0,0,0,0.00
2013-3-3,41.0,30.5,16.0,26.0,20.1,12.0,89,67,42,30.26,30.06,0,0,0,0.00
2013-3-4,53.0,43.0,35.0,41.0,32.5,26.0,80,67,53,30.08,29.79,0,0,0,0.02
2013-3-5,42.0,34.8,32.0,34.0,29.2,23.0,91,80,66,30.18,29.83,0,0,0,0.14
2013-3-6,38.0,32.4,23.0,27.0,23.7,18.0,82,70,61,30.42,30.18,0,0,0,0.01
2013-3-7,48.0,33.8,19.0,31.0,25.2,16.0,90,73,50,30.46,30.35,0,0,0,0.01
2013-3-8,54.0,42.5,31.0,36.0,31.1,26.0,84,66,47,30.47,30.24,0,0,0,0.00
2013-3-9,68.0,51.8,41.0,44.0,38.1,32.0,88,61,38,30.24,29.84,0,0,0,0.48
2013-3-10,60.0,53.0,46.0,52.0,48.5,41.0,93,85,49,29.84,29.69,0,0,0,0.79
2013-3-11,46.0,36.4,33.0,43.0,31.5,25.0,89,82,69,30.03,29.76,0,0,4,0.40
2013-3-12,50.0,37.9,29.0,31.0,26.2,23.0,81,64,41,30.25,30.02,0,0,0,0.15
2013-3-13,41.0,33.7,25.0,24.0,20.3,18.0,78,58,43,30.46,30.25,0,0,0,0.08
2013-3-14,52.0,38.1,24.0,34.0,26.5,18.0,80,64,45,30.44,30.13,0,0,0,0.01
2013-3-15,73.0,51.5,31.0,49.0,39.1,26.0,91,66,37,30.13,29.70,0,0,0,0.01
2013-3-16,65.0,48.7,39.0,48.0,40.1,36.0,89,73,51,30.10,29.68,0,0,0,0.04
2013-3-17,39.0,36.1,34.0,36.0,32.4,29.0,92,86,79,30.14,29.82,0,0,2,0.07
2013-3-18,50.0,41.2,37.0,39.0,34.5,24.0,94,79,50,30.06,29.73,0,0,6,0.08
2013-3-19,48.0,37.9,30.0,25.0,20.2,16.0,68,51,28,30.26,30.06,0,0,0,0.32
2013-3-20,37.0,32.2,27.0,29.0,18.8,13.0,82,58,44,30.32,30.15,0,0,0,0.01
2013-3-21,39.0,29.8,20.0,21.0,15.5,11.0,72,56,39,30.16,30.02,0,0,0,0.00
2013-3-22,44.0,37.1,31.0,27.0,24.1,20.0,67,60,48,30.09,30.01,0,0,0,0.00
2013-3-23,55.0,44.8,37.0,37.0,29.2,25.0,74,55,39,30.09,29.87,0,0,0,0.01
2013-3-24,43.0,34.6,32.0,36.0,31.6,30.0,92,89,75,29.91,29.62,0,0,0,0.00
2013-3-26,40.0,34.2,25.0,28.0,25.3,21.0,85,70,56,30.39,30.24,0,0,0,0.00
2013-3-27,47.0,34.0,19.0,34.0,25.1,16.0,92,72,49,30.44,30.34,0,0,0,0.00
2013-3-28,58.0,46.0,36.0,41.0,33.6,26.0,77,63,51,30.40,30.26,0,0,0,0.00
2013-3-29,64.0,52.4,44.0,48.0,42.3,38.0,85,69,53,30.29,30.22,0,0,0,0.00
2013-3-30,54.0,47.6,42.0,47.0,42.3,-99.9,92,85,68,30.25,29.96,0,0,0,0.00
2013-3-31,69.0,56.2,47.0,53.0,45.2,38.0,98,71,35,29.98,29.88,6,0,0,0.00